EW5945 Weather Reports


Display with metric or nautical units.
time (UTC)temp
F
wind
direction
speed
MPH
gust
MPH
rain 1hr
in
rain 24hr
in
rain mn
in
humidity
%
barometer
mb
20260904115338 76 239 2.0 2.0 0.00 0.00 0.00 100 1016.9
20260904114838 76 262 2.0 3.0 0.00 0.00 0.00 100 1016.9
20260904114338 76 253 2.0 2.0 0.00 0.00 0.00 100 1016.9
20260904113838 76 253 0.0 2.0 0.00 0.00 0.00 100 1016.9
20260904113339 76 280 2.0 2.0 0.00 0.00 0.00 100 1016.9
20260904112838 76 248 3.0 3.0 0.00 0.00 0.00 100 1016.9
20260904112338 75 267 0.0 2.0 0.00 0.00 0.00 100 1016.9
20260904111839 75 270 0.0 0.0 0.00 0.00 0.00 100 1017.3
20260904111339 75 269 0.0 0.0 0.00 0.00 0.00 100 1017.3
20260904110838 75 245 2.0 2.0 0.00 0.00 0.00 100 1017.3
20260904110338 75 256 0.0 0.0 0.00 0.00 0.00 100 1016.9
20260904105838 76 242 2.0 2.0 0.00 0.00 0.00 100 1016.9
20260904105338 75 294 0.0 0.0 0.00 0.00 0.00 100 1016.9
20260904104839 75 294 0.0 0.0 0.00 0.00 0.00 100 1016.9
20260904104338 75 297 0.0 0.0 0.00 0.00 0.00 100 1016.6
20260904103838 75 297 0.0 0.0 0.00 0.00 0.00 100 1016.6
20260904103338 75 300 0.0 0.0 0.00 0.00 0.00 100 1016.6
20260904102842 75 280 0.0 0.0 0.00 0.00 0.00 100 1016.6
20260904102338 75 281 0.0 0.0 0.00 0.00 0.00 100 1016.6
20260904101838 75 284 0.0 0.0 0.00 0.00 0.00 100 1016.6
20260904101338 75 280 2.0 2.0 0.00 0.00 0.00 100 1016.6
20260904100838 75 281 0.0 0.0 0.00 0.00 0.00 100 1016.3
20260904100339 75 282 0.0 0.0 0.00 0.00 0.00 100 1016.6
20260904095838 76 276 0.0 0.0 0.00 0.00 0.00 100 1016.6
20260904095339 76 274 0.0 0.0 0.00 0.00 0.00 100 1016.3
20260904094840 76 268 0.0 0.0 0.00 0.00 0.00 100 1016.6
20260904094338 76 270 0.0 0.0 0.00 0.00 0.00 100 1016.3
20260904093838 76 284 0.0 0.0 0.00 0.00 0.00 100 1016.3
20260904093340 76 287 0.0 0.0 0.00 0.00 0.00 100 1016.3
20260904092838 76 285 0.0 0.0 0.00 0.00 0.00 100 1016.6
20260904092338 76 316 0.0 0.0 0.00 0.00 0.00 100 1016.6
20260904091838 76 317 0.0 0.0 0.00 0.00 0.00 100 1016.3
20260904091339 76 317 0.0 0.0 0.00 0.00 0.00 100 1016.3
20260904090839 76 317 0.0 0.0 0.00 0.00 0.00 100 1016.3
20260904090339 76 317 0.0 0.0 0.00 0.00 0.00 100 1016.3
20260904085838 76 317 0.0 0.0 0.00 0.00 0.00 100 1016.3
20260904085338 76 286 0.0 0.0 0.00 0.00 0.00 100 1016.3
20260904084839 76 286 0.0 0.0 0.00 0.00 0.00 100 1016.3
20260904084338 76 286 0.0 0.0 0.00 0.00 0.00 100 1016.3
20260904083838 76 286 0.0 0.0 0.00 0.00 0.00 100 1016.3
20260904083339 76 283 0.0 0.0 0.00 0.00 0.00 100 1016.3
20260904082838 76 275 0.0 0.0 0.00 0.00 0.00 100 1016.6
20260904082339 76 276 0.0 0.0 0.00 0.00 0.00 100 1016.3
20260904081839 76 303 0.0 0.0 0.00 0.00 0.00 100 1016.3
20260904081339 76 304 0.0 0.0 0.00 0.00 0.00 100 1016.3
20260904080840 76 270 0.0 0.0 0.00 0.00 0.00 100 1016.6
20260904080339 76 317 0.0 0.0 0.00 0.00 0.00 100 1016.6
20260904075849 76 291 0.0 0.0 0.00 0.00 0.00 100 1016.6
20260904075340 76 275 0.0 2.0 0.00 0.00 0.00 100 1016.6
20260904074839 76 288 0.0 0.0 0.00 0.00 0.00 100 1016.6
20260904074338 77 288 0.0 0.0 0.00 0.00 0.00 100 1016.6
20260904073838 77 322 0.0 0.0 0.00 0.00 0.00 100 1016.6
20260904073340 77 325 0.0 0.0 0.00 0.00 0.00 100 1016.6
20260904072841 77 291 0.0 0.0 0.00 0.00 0.00 100 1016.6
20260904072338 77 288 0.0 0.0 0.00 0.00 0.00 100 1016.6
20260904071839 77 280 0.0 2.0 0.00 0.00 0.00 100 1016.6
20260904071338 77 273 0.0 2.0 0.00 0.00 0.00 100 1016.6
20260904070840 77 310 0.0 0.0 0.00 0.00 0.00 100 1016.6
20260904070338 77 311 0.0 0.0 0.00 0.00 0.00 100 1016.6
20260904065840 77 300 0.0 0.0 0.00 0.00 0.00 100 1016.6
20260904065339 77 294 0.0 0.0 0.00 0.00 0.00 100 1016.6
20260904064838 77 288 0.0 0.0 0.00 0.00 0.00 100 1016.6
20260904064339 77 278 0.0 0.0 0.00 0.00 0.00 100 1016.6
20260904063838 77 280 0.0 0.0 0.00 0.00 0.00 100 1016.9
20260904063339 77 238 3.0 3.0 0.00 0.00 0.00 100 1016.9
20260904062839 77 295 0.0 0.0 0.00 0.00 0.00 100 1016.9
20260904062339 77 326 0.0 0.0 0.00 0.00 0.00 100 1016.9
20260904061841 77 336 0.0 0.0 0.00 0.00 0.00 100 1016.9
20260904061338 78 338 0.0 0.0 0.00 0.00 0.00 100 1016.9
20260904060839 78 338 0.0 0.0 0.00 0.00 0.00 100 1016.9
20260904060339 78 259 0.0 0.0 0.00 0.00 0.00 100 1016.9
20260904055838 78 278 2.0 2.0 0.00 0.00 0.00 100 1016.9
20260904055338 78 260 0.0 0.0 0.00 0.00 0.00 100 1016.9
20260904054838 78 257 2.0 2.0 0.00 0.00 0.00 100 1016.9
20260904054340 78 287 0.0 2.0 0.00 0.00 0.00 100 1017.3
20260904053839 78 269 0.0 0.0 0.00 0.00 0.00 100 1016.9
20260904053339 78 287 0.0 0.0 0.00 0.00 0.00 100 1017.3
20260904052838 78 282 0.0 0.0 0.00 0.00 0.00 99 1017.3
20260904052339 78 276 0.0 0.0 0.00 0.00 0.00 99 1017.3
20260904051838 78 274 0.0 0.0 0.00 0.00 0.00 99 1017.3
20260904051338 78 254 2.0 2.0 0.00 0.00 0.00 99 1017.3
20260904050839 78 287 0.0 0.0 0.00 0.00 0.00 99 1017.6
20260904050338 78 286 0.0 0.0 0.00 0.00 0.00 99 1017.6
20260904045838 78 281 0.0 0.0 0.00 0.00 0.00 99 1017.6
20260904045338 78 283 0.0 2.0 0.00 0.00 0.00 99 1017.6
20260904044838 78 286 0.0 0.0 0.00 0.00 0.00 99 1017.6
20260904044339 78 258 0.0 0.0 0.00 0.00 0.00 99 1017.6
20260904043839 78 266 2.0 3.0 0.00 0.00 0.00 99 1017.6
20260904043340 78 339 0.0 0.0 0.00 0.00 0.00 99 1017.6
20260904042840 79 294 0.0 0.0 0.00 0.00 0.00 99 1017.6
20260904042339 79 251 2.0 2.0 0.00 0.00 0.00 99 1017.6
20260904041840 79 273 0.0 0.0 0.00 0.00 0.00 98 1017.9
20260904041338 79 265 2.0 2.0 0.00 0.00 0.00 98 1017.6
20260904040838 79 304 0.0 0.0 0.00 0.00 0.00 98 1017.9
20260904040338 79 286 0.0 0.0 0.00 0.00 0.00 98 1017.6
20260904035838 79 284 0.0 0.0 0.00 0.00 0.00 98 1017.6
20260904035338 79 279 0.0 0.0 0.00 0.00 0.00 98 1017.6
20260904034838 79 286 0.0 0.0 0.00 0.00 0.00 98 1017.9
20260904034339 79 256 0.0 0.0 0.00 0.00 0.00 98 1017.9
20260904033838 79 236 2.0 2.0 0.00 0.00 0.00 98 1017.9
20260904033338 79 256 0.0 0.0 0.00 0.00 0.00 98 1017.9
20260904032838 79 249 2.0 3.0 0.00 0.00 0.00 98 1017.9
20260904032339 79 256 2.0 2.0 0.00 0.00 0.00 97 1017.9
20260904031838 80 249 2.0 2.0 0.00 0.00 0.00 97 1017.9
20260904031339 80 306 2.0 3.0 0.00 0.00 0.00 97 1017.9
20260904030838 80 236 2.0 2.0 0.00 0.00 0.00 97 1017.6
20260904030339 80 262 5.0 5.0 0.00 0.00 0.00 97 1017.6
20260904025838 80 251 2.0 2.0 0.00 0.00 0.00 97 1017.6
20260904025342 80 239 3.0 3.0 0.00 0.00 0.00 97 1017.9
20260904024839 80 215 2.0 5.0 0.00 0.00 0.00 97 1017.9
20260904024338 80 236 2.0 2.0 0.00 0.00 0.00 97 1017.9
20260904023838 80 227 2.0 2.0 0.00 0.00 0.00 97 1017.9
20260904023339 80 226 3.0 3.0 0.00 0.00 0.00 97 1017.9
20260904022838 80 235 2.0 2.0 0.00 0.00 0.00 96 1017.9
20260904022338 80 230 2.0 2.0 0.00 0.00 0.00 96 1017.9
20260904021838 80 212 2.0 2.0 0.00 0.00 0.00 96 1017.6
20260904021339 80 268 2.0 2.0 0.00 0.00 0.00 96 1017.9
20260904020838 81 209 2.0 2.0 0.00 0.00 0.00 96 1017.9
20260904020341 81 229 0.0 2.0 0.00 0.00 0.00 96 1017.9
20260904015839 81 229 2.0 2.0 0.00 0.00 0.00 96 1017.9
20260904015342 81 245 2.0 2.0 0.00 0.00 0.00 96 1017.9
20260904014838 81 268 0.0 2.0 0.00 0.00 0.00 95 1017.6
20260904014338 81 223 2.0 3.0 0.00 0.00 0.00 95 1017.6
20260904013838 81 273 0.0 0.0 0.00 0.00 0.00 95 1017.6
20260904013339 81 265 0.0 2.0 0.00 0.00 0.00 95 1017.6
20260904012839 81 285 0.0 0.0 0.00 0.00 0.00 95 1017.6
20260904012338 81 232 3.0 3.0 0.00 0.00 0.00 95 1017.6
20260904011839 81 260 0.0 0.0 0.00 0.00 0.00 95 1017.3
20260904011343 81 268 0.0 0.0 0.00 0.00 0.00 94 1017.3
20260904010839 81 272 0.0 0.0 0.00 0.00 0.00 94 1017.3
20260904010339 81 174 2.0 2.0 0.00 0.00 0.00 94 1017.3
20260904005839 81 262 2.0 2.0 0.00 0.00 0.00 94 1017.3
20260904005338 81 287 0.0 0.0 0.00 0.00 0.00 93 1017.3
20260904004838 81 204 2.0 2.0 0.00 0.00 0.00 93 1017.3
20260904004339 81 343 0.0 0.0 0.00 0.00 0.00 93 1016.9
20260904003839 82 297 0.0 0.0 0.00 0.00 0.00 92 1016.9
20260904003338 82 284 0.0 0.0 0.00 0.00 0.00 92 1016.9
20260904002839 82 297 0.0 0.0 0.00 0.00 0.00 92 1016.6
20260904002339 82 65 2.0 2.0 0.00 0.00 0.00 92 1016.6
20260904001838 82 342 0.0 0.0 0.00 0.00 0.00 91 1016.6
20260904001338 82 282 0.0 0.0 0.00 0.00 0.00 90 1016.6
20260904000839 82 269 0.0 0.0 0.00 0.00 0.00 90 1016.3
20260904000340 83 271 0.0 0.0 0.00 0.00 0.00 89 1016.3
20260903235839 83 39 0.0 0.0 0.00 0.00 0.00 89 1016.3
20260903235338 83 226 2.0 2.0 0.00 0.00 0.00 89 1016.3
20260903234838 83 227 2.0 2.0 0.00 0.00 0.00 88 1016.3
20260903234339 83 244 2.0 5.0 0.00 0.00 0.00 88 1016.3
20260903233838 84 264 2.0 2.0 0.00 0.00 0.00 87 1016.3
20260903233339 84 255 2.0 3.0 0.00 0.00 0.00 87 1016.3
20260903232839 84 232 5.0 5.0 0.00 0.00 0.00 86 1016.3
20260903232340 84 263 2.0 2.0 0.00 0.00 0.00 85 1016.3
20260903231845 85 200 2.0 2.0 0.00 0.00 0.00 84 1016.3
20260903231338 85 218 5.0 7.0 0.00 0.00 0.00 84 1016.6
20260903230838 85 208 3.0 3.0 0.00 0.00 0.00 83 1016.6
20260903230339 86 202 5.0 5.0 0.00 0.00 0.00 82 1016.6
20260903225839 86 239 5.0 5.0 0.00 0.00 0.00 81 1016.6
20260903225338 86 226 3.0 5.0 0.00 0.00 0.00 80 1016.6
20260903224840 87 204 3.0 5.0 0.00 0.00 0.00 78 1016.6
20260903224339 87 244 2.0 5.0 0.00 0.00 0.00 78 1016.6
20260903223839 87 190 3.0 3.0 0.00 0.00 0.00 76 1016.6
20260903223338 88 268 2.0 3.0 0.00 0.00 0.00 76 1016.6
20260903222839 87 245 5.0 5.0 0.00 0.00 0.00 77 1016.6
20260903222338 88 196 3.0 5.0 0.00 0.00 0.00 76 1016.6
20260903221840 88 234 3.0 3.0 0.00 0.00 0.00 77 1016.6
20260903221339 88 315 2.0 2.0 0.00 0.00 0.00 76 1016.6
20260903220838 88 180 2.0 5.0 0.00 0.00 0.00 75 1016.6
20260903220340 88 121 2.0 2.0 0.00 0.00 0.00 75 1016.6
20260903215838 89 243 5.0 5.0 0.00 0.00 0.00 72 1016.6
20260903215338 89 271 3.0 3.0 0.00 0.00 0.00 72 1016.6
20260903214838 88 276 0.0 2.0 0.00 0.00 0.00 72 1016.6
20260903214338 89 232 2.0 2.0 0.00 0.00 0.00 71 1016.3
20260903213839 90 220 3.0 3.0 0.00 0.00 0.00 70 1016.6
20260903213338 90 266 5.0 5.0 0.00 0.00 0.00 68 1016.6
20260903212838 91 223 3.0 3.0 0.00 0.00 0.00 70 1016.6
20260903212338 90 195 2.0 2.0 0.00 0.00 0.00 72 1016.6
20260903211839 89 261 0.0 0.0 0.00 0.00 0.00 71 1016.6
20260903211341 90 97 2.0 2.0 0.00 0.00 0.00 70 1016.6
20260903210839 91 217 6.0 7.0 0.00 0.00 0.00 68 1016.3
20260903210339 90 129 2.0 3.0 0.00 0.00 0.00 74 1016.3
20260903205838 89 136 2.0 3.0 0.00 0.00 0.00 72 1016.3
20260903205339 90 182 2.0 3.0 0.00 0.00 0.00 73 1016.3
20260903204839 90 193 2.0 2.0 0.00 0.00 0.00 73 1016.3
20260903204338 90 279 2.0 2.0 0.00 0.00 0.00 73 1016.3
20260903203839 90 83 2.0 2.0 0.00 0.00 0.00 73 1016.6
20260903203338 90 98 2.0 2.0 0.00 0.00 0.00 73 1016.6
20260903202839 91 249 0.0 2.0 0.00 0.00 0.00 71 1016.6
20260903202339 90 225 2.0 3.0 0.00 0.00 0.00 71 1016.6
20260903201840 90 288 2.0 2.0 0.00 0.00 0.00 68 1016.6
20260903201338 90 225 2.0 3.0 0.00 0.00 0.00 68 1016.9
20260903200841 91 337 0.0 0.0 0.00 0.00 0.00 66 1016.9
20260903200339 91 249 3.0 3.0 0.00 0.00 0.00 69 1016.9
20260903195839 91 113 2.0 3.0 0.00 0.00 0.00 70 1016.9
20260903195339 90 249 2.0 3.0 0.00 0.00 0.00 66 1016.9
20260903194839 91 337 0.0 5.0 0.00 0.00 0.00 69 1016.9
20260903194338 92 208 5.0 5.0 0.00 0.00 0.00 64 1016.9
20260903193838 90 220 2.0 2.0 0.00 0.00 0.00 67 1016.9
20260903193339 91 275 2.0 2.0 0.00 0.00 0.00 72 1016.9
20260903192838 91 235 2.0 2.0 0.00 0.00 0.00 70 1017.3
20260903192338 90 72 0.0 2.0 0.00 0.00 0.00 69 1017.3
20260903191839 92 38 2.0 3.0 0.00 0.00 0.00 67 1017.3
20260903191339 91 176 2.0 2.0 0.00 0.00 0.00 68 1017.3
20260903190841 91 266 2.0 2.0 0.00 0.00 0.00 67 1017.3
20260903190339 91 143 0.0 2.0 0.00 0.00 0.00 69 1017.3
20260903185839 92 189 2.0 5.0 0.00 0.00 0.00 68 1017.3
20260903185339 93 193 6.0 7.0 0.00 0.00 0.00 70 1017.3
20260903184840 93 214 3.0 7.0 0.00 0.00 0.00 71 1017.3
20260903184340 92 79 2.0 2.0 0.00 0.00 0.00 72 1017.6
20260903183838 92 226 3.0 3.0 0.00 0.00 0.00 71 1017.6
20260903183340 92 181 2.0 3.0 0.00 0.00 0.00 72 1017.6
20260903182839 91 131 2.0 3.0 0.00 0.00 0.00 73 1017.6
20260903182339 92 257 3.0 3.0 0.00 0.00 0.00 73 1017.6
20260903181839 91 279 2.0 2.0 0.00 0.00 0.00 73 1017.6
20260903181338 91 124 2.0 3.0 0.00 0.00 0.00 72 1017.6
20260903180840 91 58 2.0 3.0 0.00 0.00 0.00 72 1017.9
20260903180338 91 336 2.0 2.0 0.00 0.00 0.00 74 1017.9
20260903175840 91 231 3.0 3.0 0.00 0.00 0.00 72 1017.6
20260903175339 91 127 3.0 3.0 0.00 0.00 0.00 73 1017.6
20260903174839 91 295 0.0 0.0 0.00 0.00 0.00 74 1017.9
20260903174338 91 275 0.0 2.0 0.00 0.00 0.00 73 1017.6
20260903173838 91 202 2.0 3.0 0.00 0.00 0.00 75 1017.6
20260903173339 91 119 3.0 5.0 0.00 0.00 0.00 74 1017.6
20260903172838 90 130 2.0 3.0 0.00 0.00 0.00 76 1017.9
20260903172338 91 228 3.0 5.0 0.00 0.00 0.00 76 1017.9
20260903171838 92 233 2.0 2.0 0.00 0.00 0.00 73 1017.9
20260903171338 92 236 5.0 7.0 0.00 0.00 0.00 73 1017.9
20260903170839 91 273 3.0 5.0 0.00 0.00 0.00 74 1017.9
20260903170340 90 84 2.0 3.0 0.00 0.00 0.00 74 1017.9
20260903165839 90 284 2.0 2.0 0.00 0.00 0.00 74 1017.9
20260903165338 89 138 0.0 2.0 0.00 0.00 0.00 77 1018.3
20260903164838 89 256 0.0 2.0 0.00 0.00 0.00 75 1018.3
20260903164338 90 240 2.0 2.0 0.00 0.00 0.00 74 1018.3
20260903163839 90 33 0.0 2.0 0.00 0.00 0.00 73 1018.3
20260903163338 90 221 3.0 3.0 0.00 0.00 0.00 75 1018.3
20260903162839 90 223 2.0 3.0 0.00 0.00 0.00 75 1018.3
20260903162339 90 242 5.0 5.0 0.00 0.00 0.00 75 1018.3
20260903161839 89 267 2.0 5.0 0.00 0.00 0.00 75 1018.3
20260903161339 89 62 3.0 3.0 0.00 0.00 0.00 74 1018.3
20260903160839 89 253 2.0 3.0 0.00 0.00 0.00 74 1018.6
20260903160339 89 287 0.0 2.0 0.00 0.00 0.00 76 1018.3
20260903155838 89 120 2.0 2.0 0.00 0.00 0.00 77 1018.6
20260903155339 88 74 2.0 2.0 0.00 0.00 0.00 75 1018.6
20260903154838 88 323 2.0 2.0 0.00 0.00 0.00 76 1018.6
20260903154338 88 227 3.0 3.0 0.00 0.00 0.00 76 1018.6
20260903153839 88 86 2.0 2.0 0.00 0.00 0.00 76 1018.6
20260903153338 88 240 5.0 5.0 0.00 0.00 0.00 79 1018.6
20260903152839 87 241 3.0 3.0 0.00 0.00 0.00 78 1019.0
20260903152339 88 340 0.0 2.0 0.00 0.00 0.00 76 1018.6
20260903151838 87 270 2.0 3.0 0.00 0.00 0.00 78 1018.6
20260903151339 87 124 3.0 3.0 0.00 0.00 0.00 79 1018.6
20260903150839 87 210 3.0 5.0 0.00 0.00 0.00 78 1018.6
20260903150339 87 267 2.0 3.0 0.00 0.00 0.00 77 1018.6
20260903145839 86 211 5.0 5.0 0.00 0.00 0.00 76 1018.6
20260903145339 86 325 0.0 0.0 0.00 0.00 0.00 79 1018.6
20260903144839 86 246 2.0 2.0 0.00 0.00 0.00 77 1018.6
20260903144338 86 258 5.0 5.0 0.00 0.00 0.00 76 1018.6
20260903143839 85 224 3.0 3.0 0.00 0.00 0.00 77 1018.6
20260903143339 85 261 2.0 3.0 0.00 0.00 0.00 78 1018.6
20260903142839 85 269 3.0 3.0 0.00 0.00 0.00 80 1018.6
20260903142341 85 234 2.0 3.0 0.00 0.00 0.00 78 1018.6
20260903141844 84 244 3.0 7.0 0.00 0.00 0.00 77 1018.6
20260903141338 84 225 3.0 5.0 0.00 0.00 0.00 77 1018.6
20260903140839 84 237 5.0 5.0 0.00 0.00 0.00 79 1018.6
20260903140339 84 239 5.0 5.0 0.00 0.00 0.00 80 1018.6
20260903135841 84 240 3.0 3.0 0.00 0.00 0.00 84 1018.6
20260903135339 83 235 6.0 7.0 0.00 0.00 0.00 84 1018.3
20260903134839 83 210 2.0 3.0 0.00 0.00 0.00 84 1018.6
20260903134338 83 198 2.0 2.0 0.00 0.00 0.00 85 1018.6
20260903133840 83 237 2.0 3.0 0.00 0.00 0.00 87 1018.6
20260903133339 83 227 3.0 3.0 0.00 0.00 0.00 87 1018.3
20260903132838 82 266 2.0 7.0 0.00 0.00 0.00 89 1018.6
20260903132339 81 234 3.0 5.0 0.00 0.00 0.00 89 1018.6
20260903131838 81 204 3.0 3.0 0.00 0.00 0.00 92 1018.6
20260903131338 81 225 2.0 2.0 0.00 0.00 0.00 93 1018.6
20260903130840 81 219 5.0 5.0 0.00 0.00 0.00 94 1018.6
20260903130339 81 279 3.0 3.0 0.00 0.00 0.00 95 1018.6
20260903125838 80 259 5.0 5.0 0.00 0.00 0.00 96 1019.0
20260903125339 80 221 3.0 3.0 0.00 0.00 0.00 97 1019.0
20260903124840 79 221 3.0 5.0 0.00 0.00 0.00 98 1018.6
20260903124341 79 226 2.0 3.0 0.00 0.00 0.00 99 1018.6
20260903123839 79 227 2.0 2.0 0.00 0.00 0.00 99 1018.6
20260903123339 78 226 3.0 3.0 0.00 0.00 0.00 99 1018.6
20260903122839 78 227 3.0 3.0 0.00 0.00 0.00 100 1018.6
20260903122338 78 227 3.0 3.0 0.00 0.00 0.00 100 1018.6
20260903121838 78 254 2.0 2.0 0.00 0.00 0.00 100 1018.6
20260903121338 78 228 0.0 2.0 0.00 0.00 0.00 100 1018.6
20260903120838 78 237 2.0 2.0 0.00 0.00 0.00 100 1018.6
20260903120338 77 259 0.0 2.0 0.00 0.00 0.00 100 1018.6
20260903115839 77 281 2.0 2.0 0.00 0.00 0.00 100 1018.6